METEOR 2-17 DEB, 35364

Orbit data source: Space-Track

METEOR 2-17 DEB, 35364 is space debris in LEO originally from a launch on Sat, 30 Jan 1988 UTC launched from the Plesetsk Missile And Space Complex (PKMTR). Debris objects in space refer to the collection of defunct objects orbiting the Earth. Examples of debris include non-operational satellites, rocket bodies, and fragments generated from explosions, collisions, or faulty payload assembly.

Loading next visibility...
Identifier
35364, 1988-005Y
Orbit
LEO
Country
Flag of CISCIS
Related business
Manufacturer
Unknown
Mission
Spacecraft
Bus & Motor
Unknown
Mass
Unknown
Launch date (UTC)
1988-01-30 (38 years ago)
Launch vehicle
Unknown
Launch site
Plesetsk Missile And Space Complex (PKMTR)
Object type
Payload
Rocket body
Debris
Shape & HBR
Unknown shape, 0.1 m
Radar Cross Section
Small (<0.1 m²)

Expand to show TLE details & history
Last TLE update: 11 hours ago

TLE from 11 hours ago
0 METEOR 2-17 DEB
1 35364U 88005Y   25352.45512623  .00001309  00000-0  84692-3 0  9992
2 35364  82.5478  50.7171 0022967 293.1103  82.5915 14.02033574525431
Epoch: 2025-12-18T10:55Z
TLE epoch observation values (Epoch: 2025-12-18T10:55:22.906Z)
Latitude
15.80413°
Longitude
161.67192°
Altitude
886.901 km
Speed
7.411 km/s
True Right ascension
03h 31m 18s
True Declination
15° 42' 57"
Sunlit
Object was in full shadow at epoch
Visualization orbit readout
Latitude
Unknown
Longitude
Unknown
Altitude
Unknown
Speed
Unknown
Apparent Right ascension
Unknown
Apparent Declination
Unknown
Sunlit
N/A
Visualization observer readout
Local Sidereal Time
20:38:03
Azimuth
Unknown
Elevation
Unknown
Doppler factor
Unknown
Orbital elements
Apogee altitude
900.568 km
Perigee altitude
867.21 km
Semi-major axis
7,262.026 km
Eccentricity
0.0023
Inclination
82.5478°
RAAN
50.7171°
Arg. of periapsis
293.1103°
True anomaly
82.85258°
Mean anomaly
82.5915°
Eccentric anomaly
82.72203°
Mean motion
3.50717 °/min
Orbital period
102.65 mins
BSTAR
0.00084692
Loading maneuver chart data...
Computing Atmospheric mass density...
Loading historical data...
Loading historical data...
Loading historical data...
Loading historical data...
Loading historical data...
Loading historical data...
Loading historical data...

Documentation

Showing up to 5 results
|